Ushuaia, Argentina

8:19 AM America en Octubre 15, 2018 (GMT +0000)
Ushuaia International Malvine Island

Tiempo Historia de SAWH - Enero, 2018

Change the Weather History Date:

Sábado, Enero 13, 2018

  Actual Average Record
Temperature  
Temperatura media 45 ° F -  
Temperatura máxima 48 ° F 57 ° F 68 ° F (2014)
Temperatura mínima 42 ° F 42 ° F 37 ° F (2016)
Degree Days  
Grados día de calefacción 20    
Moisture  
Punto de rocío 38 ° F    
Average Humidity 74    
Maximum Humidity 93    
Minimum Humidity 53    
Precipitación  
Precipitación 0.02 pul 0.05 pul - ()
Presión al nivel del mar  
Presión al nivel del mar 29.42 pul    
Viento  
Velocidad del viento 20 mph ()    
Velocidad máxima del viento 44 mph    
Max Gust Speed 56 mph    
Visibilidad 7.3 Millas    
Eventos Lluvia    
Averages and records for this station are not official NWS values.
T = Trace of Precipitation, MM = Missing Value Source: Averaged Metar Reports

Daily Weather History Graph

Daily Weather History Graph

Search for Another Location

Airport or City:

Astronomía

Jan. 13, 2018 Salida Puesta
Hora real 5:18 AM -03 10:04 PM -03
Crepúsculo civil 4:26 AM -03 10:55 PM -03
Crepúsculo náutico 2:57 AM -03 12:22 AM -03
Crepúsculo astronómico Sun does not set Sun does not set
Luna 2:59 AM -03 (1/13) 7:08 PM -03 (1/13)
Horas de luz 18h 29m
Horas de luz
16h 45m
Creciente menguante, 10% of the Moon is Illuminated
Ene 13
Creciente menguante
Ene 16
Nueva
Ene 24
Cuarto creciente
Ene 31
Luna llena
Feb 7
Cuarto menguante

Hourly Weather History & Observations

Hora (-03) Temp. Vientos helados Punto de rocío Humedad Presión Visibilidad Wind Dir Velocidad del viento Velocidad de ráfagas Precip Eventos Condiciones
12:00 AM 45 ° F - 38 ° F 68% 29.47 pul 12 mi SO 26.5 mph - -   Parcialmente nublado
12:00 AM 44.6 ° F 35.3 ° F 37.4 ° F 76% 29.44 pul 6.2 mi SO 26.5 mph 36.8 mph N/A   Nubes dispersas
1:00 AM 44.6 ° F 37.4 ° F 35.6 ° F 71% 29.47 pul 6.2 mi SO 16.1 mph - N/A   Llovizna débil
2:00 AM 44.6 ° F 35.7 ° F 35.6 ° F 71% 29.44 pul 6.2 mi SO 24.2 mph - N/A   Nublado
3:00 AM 44 ° F - 36 ° F 65% 29.44 pul 12 mi SO 24.2 mph - -   Parcialmente nublado
3:00 AM 42.8 ° F 33.3 ° F 35.6 ° F 76% 29.42 pul 6.2 mi SO 24.2 mph 35.7 mph N/A   Muy nublado
4:00 AM 42.8 ° F 35.4 ° F 35.6 ° F 76% 29.42 pul 6.2 mi SO 15.0 mph - N/A   Muy nublado
5:00 AM 42.8 ° F 35.8 ° F 35.6 ° F 76% 29.42 pul 6.2 mi SO 13.8 mph - N/A   Llovizna débil
6:00 AM 43 ° F - 37 ° F 71% 29.43 pul 12 mi OSO 13.8 mph - - Lluvia Llovizna débil
6:00 AM 42.8 ° F 35.8 ° F 37.4 ° F 81% 29.42 pul 6.2 mi OSO 13.8 mph - N/A   Nublado
7:00 AM 42.8 ° F 39.3 ° F 39.2 ° F 87% 29.39 pul 6.2 mi Oeste 5.8 mph 18.4 mph N/A   Muy nublado
8:00 AM 42.8 ° F 41.1 ° F 39.2 ° F 87% 29.33 pul 6.2 mi SO 3.5 mph - N/A   Muy nublado
9:00 AM 44 ° F - 40 ° F 79% 29.31 pul 12 mi Sur 4.6 mph - - Lluvia Llovizna débil
9:00 AM 44.6 ° F 42.2 ° F 39.2 ° F 81% 29.30 pul 6.2 mi Sur 4.6 mph - N/A   Llovizna débil
10:00 AM 42.8 ° F 40.1 ° F 41.0 ° F 93% 29.27 pul 6.2 mi Sur 4.6 mph - N/A Lluvia Lluvia
11:00 AM 44.6 ° F 39.7 ° F 41.0 ° F 87% 29.27 pul 6.2 mi SO 9.2 mph 21.9 mph N/A Lluvia Lluvia débil
12:00 PM 44 ° F - 40 ° F 82% 29.32 pul 6 mi OSO 25.3 mph - - Lluvia Lluvia
12:00 PM 42.8 ° F 33.1 ° F 41.0 ° F 93% 29.30 pul 6.2 mi OSO 25.3 mph 36.8 mph N/A Lluvia Lluvia
1:00 PM 46.4 ° F 37.4 ° F 39.2 ° F 76% 29.36 pul 6.2 mi OSO 28.8 mph 40.3 mph N/A   Nublado
2:00 PM 48.2 ° F - 41.0 ° F 76% 29.42 pul 6.2 mi OSO 25.3 mph - N/A   Muy nublado
3:00 PM 48 ° F - 39 ° F 61% 29.43 pul 6 mi OSO 40.3 mph - - Lluvia Lluvia débil
3:00 PM 48.2 ° F - 39.2 ° F 71% 29.42 pul 6.2 mi OSO 40.3 mph - N/A Lluvia Lluvia débil
4:00 PM 48.2 ° F - 37.4 ° F 66% 29.44 pul 6.2 mi SO 40.3 mph - N/A   Muy nublado
5:00 PM 48.2 ° F - 37.4 ° F 66% 29.44 pul 6.2 mi SO 43.7 mph 56.4 mph N/A   Muy nublado
6:00 PM 47 ° F - 37 ° F 60% 29.48 pul 12 mi SO 34.5 mph - - Lluvia Lluvia débil
6:00 PM 48.2 ° F - 37.4 ° F 66% 29.47 pul 6.2 mi SO 34.5 mph 46.0 mph N/A Lluvia Lluvia débil
7:00 PM 46.4 ° F 37.9 ° F 39.2 ° F 76% 29.50 pul 6.2 mi SO 25.3 mph 49.5 mph N/A   Nubes dispersas
8:00 PM 46.4 ° F 37.0 ° F 37.4 ° F 71% 29.50 pul 6.2 mi SO 31.1 mph 49.5 mph N/A   Nubes dispersas
9:00 PM 47 ° F - 35 ° F 53% 29.51 pul 12 mi SO 33.4 mph - -   Parcialmente nublado
9:00 PM 46.4 ° F 36.7 ° F 35.6 ° F 66% 29.50 pul 6.2 mi SO 33.4 mph 43.7 mph N/A   Nubes dispersas
10:00 PM 46.4 ° F 36.9 ° F 35.6 ° F 66% 29.50 pul 6.2 mi SO 32.2 mph 47.2 mph N/A   Nubes dispersas
11:00 PM 46.4 ° F 37.7 ° F 35.6 ° F 66% 29.50 pul 6.2 mi SO 26.5 mph 42.6 mph N/A   Nubes dispersas